Regional Weather Roundup
Issued by NWS

Home | Current Version | Previous Version | Text Only | Print | Product List | Glossary On
Versions: 1 2 3 4 5 6 7 8 9 10 11 12 13 14 15 16 17 18 19 20 21 22 23 24 25 26 27 28 29 30 31 32 33 34 35 36 37 38 39 40 41 42 43 44 45 46 47 48 49 50
000
ASUS43 KLMK 220810
RWRKY
KENTUCKY REGIONAL WEATHER ROUNDUP
NATIONAL WEATHER SERVICE LOUISVILLE KY
400 AM EDT TUE AUG 22 2017

NOTE "FAIR" INDICATES FEW OR NO CLOUDS BELOW 12,000 FEET
WITH NO SIGNIFICANT WEATHER AND/OR OBSTRUCTIONS TO VISIBILITY.

KYZ001>023-026-027-061>063-070>075-220900-
WESTERN AND SOUTH CENTRAL KENTUCKY

CITY           SKY/WX    TMP DP  RH WIND       PRES   REMARKS
PADUCAH        CLEAR     78  73  84 SW5       29.99F
HENDERSON      NOT AVBL
OWENSBORO      CLEAR     75  72  90 S7        29.99F
HOPKINSVILLE   CLEAR     76  71  84 SW6       30.03F
BOWLING GREEN  PTCLDY    77  70  79 S3        30.04F
GLASGOW        CLEAR     73  67  82 S3        30.06F
$$

KYZ024-025-028>034-038-045-046-053-220900-
NORTH CENTRAL KENTUCKY

CITY           SKY/WX    TMP DP  RH WIND       PRES   REMARKS
LOUISVILLE/SDF MOCLDY    80  68  66 S8        30.00F
LOUISVILLE/LOU PTCLDY    76  70  82 S6        30.01F
FORT KNOX      CLEAR     73  68  84 S7        30.01F
$$

KYZ035>037-039>044-047>052-055>060-089>105-220900-
NORTHEAST KENTUCKY

CITY           SKY/WX    TMP DP  RH WIND       PRES   REMARKS
LEXINGTON      CLEAR     75  67  76 S7        30.05F
COVINGTON      CLOUDY    76  70  82 S8        30.01F
FRANKFORT      CLEAR     74  66  76 S5        30.03F
$$

KYZ054-064>069-076>088-106>120-220900-
SOUTHEAST KENTUCKY

CITY           SKY/WX    TMP DP  RH WIND       PRES   REMARKS
JACKSON        PTCLDY    71  68  90 CALM      30.09F
LONDON         CLOUDY    68  67  96 CALM      30.10F
SOMERSET       CLEAR     70  70 100 CALM      30.10S
MIDDLESBORO    CLEAR     66  66 100 CALM      30.13F
MONTICELLO     SUNNY     67  66  97 W10       30.10F
$$





USA.gov is the U.S. government's official web portal to all federal, state and local government web resources and services.